Location: Lawrence
(38.9720°N, 95.2350°W)
Time: 20:24:16
(UTC-05:00)

JAS-1B - Visible Passes

Search period start: 23 April 2017 00:00
Search period end: 03 May 2017 00:00
Orbit: 911 x 1744 km, 99.0° (Epoch: 22 April)

Date Brightness Start Highest point End Pass type
(mag) Time Alt. Az. Time Alt. Az. Time Alt. Az.
23 Apr 9.6 02:05:07 10° ESE 02:11:32 23° ENE 02:17:17 10° NNE visible
23 Apr 7.8 03:55:21 25° S 04:01:27 81° WSW 04:09:25 10° NNW visible
23 Apr 9.2 05:47:44 10° WSW 05:52:35 15° W 05:57:08 10° WNW visible
24 Apr 9.2 02:22:59 10° ESE 02:30:21 30° ENE 02:36:48 10° N visible
24 Apr 7.8 04:14:44 25° S 04:20:30 62° WSW 04:28:19 10° NNW visible
25 Apr 8.8 02:41:52 13° SE 02:49:13 39° ENE 02:56:11 10° N visible
25 Apr 8.1 04:34:08 23° SSW 04:39:35 47° W 04:47:07 10° NNW visible
26 Apr 8.4 03:01:16 17° SE 03:08:09 52° ENE 03:15:26 10° N visible
26 Apr 8.4 04:53:32 20° SSW 04:58:42 35° W 05:05:45 10° NNW visible
27 Apr 10.0 01:34:13 10° E 01:37:34 13° ENE 01:40:44 10° NNE visible
27 Apr 8.0 03:20:40 20° SSE 03:27:07 68° ENE 03:34:35 10° N visible
27 Apr 8.7 05:12:56 16° SW 05:17:52 25° W 05:24:09 10° NW visible
28 Apr 9.7 01:51:09 10° E 01:56:16 18° ENE 02:00:55 10° NNE visible
28 Apr 7.7 03:40:04 23° SSE 03:46:07 87° ENE 03:53:39 10° NNW visible
28 Apr 9.0 05:32:20 12° SW 05:37:04 18° W 05:42:09 10° NW visible
29 Apr 9.4 02:08:44 10° ESE 02:15:02 24° ENE 02:20:38 10° NNE visible
29 Apr 7.6 03:59:29 25° S 04:05:09 72° WSW 04:12:37 10° NNW visible
29 Apr 9.3 05:53:30 10° WSW 05:56:21 12° W 05:59:06 10° WNW visible
30 Apr 9.0 02:26:42 10° ESE 02:33:53 32° ENE 02:40:07 10° N visible
30 Apr 7.8 04:18:53 24° SSW 04:24:12 54° W 04:31:28 10° NNW visible
01 May 8.6 02:46:02 14° SE 02:52:47 42° ENE 02:59:27 10° N visible
01 May 8.1 04:38:17 22° SSW 04:43:17 40° W 04:50:10 10° NNW visible
02 May 8.1 03:05:26 18° SE 03:11:43 56° ENE 03:18:40 10° N visible
02 May 8.4 04:57:42 18° SW 05:02:23 29° W 05:08:41 10° NW visible
